Alvadore, OR

8:43 AM PST on February 27, 2017 (GMT -0800)
Mahlon Sweet

Weather History for KEUG - December, 2011

Change the Weather History Date:

Thursday, December 15, 2011

  Actual Average Record
Temperature  
Mean Temperature 42 °F 39 °F  
Max Temperature 50 °F 45 °F 65 °F (1941)
Min Temperature 33 °F 34 °F 10 °F (1932)
Degree Days  
Heating Degree Days 23 26  
Month to date heating degree days 448 371  
Since 1 July heating degree days 1499 1544  
Moisture  
Dew Point 38 °F    
Average Humidity 90    
Maximum Humidity 100    
Minimum Humidity 80    
Precipitation  
Precipitation T in 0.25 in 3.02 in (1982)
Month to date precipitation 0.10 4.07  
Year to date precipitation 29.15 42.34  
Snow  
Snow 0.00 in - - ()
Month to date snowfall 0.0  
Since 1 July snowfall 0.0  
Snow Depth 0.00 in    
Sea Level Pressure  
Sea Level Pressure 30.35 in    
Wind  
Wind Speed 4 mph (South)    
Max Wind Speed 8 mph    
Max Gust Speed 9 mph    
Visibility 6 miles    
Events Fog    
T = Trace of Precipitation, MM = Missing Value Source: NWS Daily Summary

Daily Weather History Graph

Daily Weather History Graph

Search for Another Location

Airport or City:

Trip Planner

Search our weather history database for the weather conditions in past years. The results will help you decide how hot, cold, wet, or windy it might be!

Date:

Astronomy

Dec. 15, 2011 Rise Set
Actual Time 7:41 AM PST 4:34 PM PST
Civil Twilight 7:07 AM PST 5:08 PM PST
Nautical Twilight 6:31 AM PST 5:44 PM PST
Astronomical Twilight 5:56 AM PST 6:19 PM PST
Moon 10:17 PM PST (12/15) 10:51 AM PST (12/15)
Length of Visible Light 10h 00m
Length of Day
8h 53m
Waning Gibbous, 73% of the Moon is Illuminated
Dec 15
Waning Gibbous
Dec 17
Last Quarter
Dec 24
New
Dec 31
First Quarter
Jan 8
Full

Hourly Weather History & Observations

Time (PST) Temp. Windchill Dew Point Humidity Pressure Visibility Wind Dir Wind Speed Gust Speed Precip Events Conditions
12:46 AM 39.2 °F - 37.4 °F 93% 30.12 in 9.0 mi Calm Calm - N/A   Overcast
12:54 AM 39.0 °F - 37.0 °F 93% 30.12 in 8.0 mi Calm Calm - N/A   Overcast
1:54 AM 37.9 °F - 36.0 °F 93% 30.14 in 5.0 mi Calm Calm - 0.00 in   Overcast
2:54 AM 37.9 °F 35.5 °F 36.0 °F 93% 30.17 in 4.0 mi West 3.5 mph - N/A   Overcast
3:35 AM 33.8 °F 30.8 °F 33.8 °F 100% 30.15 in 2.0 mi SE 3.5 mph - N/A   Mostly Cloudy
3:43 AM 35.6 °F 32.8 °F 33.8 °F 93% 30.16 in 1.8 mi SE 3.5 mph - N/A   Mostly Cloudy
3:52 AM 35.6 °F 31.7 °F 33.8 °F 93% 30.16 in 1.8 mi SSW 4.6 mph - N/A   Mostly Cloudy
3:54 AM 35.6 °F 30.7 °F 33.8 °F 93% 30.17 in 1.8 mi SW 5.8 mph - N/A   Mostly Cloudy
4:11 AM 37.4 °F 33.8 °F 35.6 °F 93% 30.17 in 4.0 mi SSW 4.6 mph - N/A   Overcast
4:54 AM 37.9 °F 35.5 °F 36.0 °F 93% 30.20 in 5.0 mi SSE 3.5 mph - N/A   Overcast
5:54 AM 37.9 °F 34.4 °F 37.0 °F 97% 30.23 in 8.0 mi SW 4.6 mph - N/A   Overcast
6:54 AM 39.2 °F 34.2 °F 37.4 °F 93% 30.25 in 9.0 mi West 6.9 mph - N/A   Overcast
7:54 AM 39.9 °F 35.8 °F 37.0 °F 89% 30.28 in 10.0 mi SSE 5.8 mph - N/A   Overcast
8:54 AM 41.0 °F 38.0 °F 39.0 °F 93% 30.31 in 10.0 mi SSW 4.6 mph - N/A   Overcast
9:54 AM 43.0 °F 40.3 °F 39.9 °F 89% 30.33 in 10.0 mi SSE 4.6 mph - 0.00 in   Overcast
10:21 AM 44.6 °F 42.2 °F 41.0 °F 87% 30.34 in 9.0 mi South 4.6 mph - 0.00 in   Light Drizzle
10:54 AM 44.1 °F 41.5 °F 41.0 °F 89% 30.36 in 9.0 mi South 4.6 mph - 0.00 in   Overcast
11:54 AM 46.9 °F - 43.0 °F 86% 30.38 in 10.0 mi South 5.8 mph - N/A   Mostly Cloudy
12:22 PM 46.4 °F 43.5 °F 42.8 °F 87% 30.38 in 10.0 mi South 5.8 mph - N/A   Overcast
12:54 PM 46.9 °F - 44.1 °F 90% 30.39 in 9.0 mi South 6.9 mph - 0.00 in   Light Drizzle
1:13 PM 48.2 °F - 44.6 °F 87% 30.37 in 10.0 mi South 6.9 mph - 0.00 in   Mostly Cloudy
1:54 PM 50.0 °F - 44.1 °F 80% 30.39 in 10.0 mi South 4.6 mph - 0.00 in   Mostly Cloudy
2:54 PM 48.9 °F - 44.1 °F 83% 30.41 in 10.0 mi South 5.8 mph - N/A   Mostly Cloudy
3:54 PM 48.0 °F - 43.0 °F 83% 30.41 in 10.0 mi SSE 5.8 mph - N/A   Mostly Cloudy
4:54 PM 46.9 °F - 44.1 °F 90% 30.43 in 10.0 mi SSE 4.6 mph - N/A   Overcast
5:54 PM 46.0 °F 43.9 °F 43.0 °F 89% 30.45 in 10.0 mi SE 4.6 mph - N/A   Overcast
6:54 PM 44.1 °F 40.8 °F 42.1 °F 93% 30.46 in 10.0 mi SE 5.8 mph - N/A   Mostly Cloudy
7:54 PM 44.1 °F 41.5 °F 41.0 °F 89% 30.48 in 10.0 mi SSE 4.6 mph - N/A   Mostly Cloudy
8:54 PM 39.0 °F 36.8 °F 37.9 °F 96% 30.48 in 8.0 mi South 3.5 mph - N/A   Clear
9:42 PM 37.4 °F - 35.6 °F 93% 30.49 in 3.0 mi Calm Calm - N/A   Partly Cloudy
9:54 PM 34.0 °F - 33.1 °F 96% 30.50 in 2.0 mi Calm Calm - N/A   Partly Cloudy
9:57 PM 35.6 °F - 33.8 °F 93% 30.49 in 1.0 mi Calm Calm - N/A   Scattered Clouds
10:00 PM 35.6 °F - 33.8 °F 93% 30.50 in 0.5 mi Calm Calm - N/A Fog Fog
10:13 PM 33.8 °F - 33.8 °F 100% 30.49 in 0.2 mi Calm Calm - N/A Fog Fog
10:19 PM 33.8 °F 30.8 °F 32.0 °F 93% 30.49 in 0.1 mi South 3.5 mph - N/A Fog Fog
10:43 PM 33.8 °F 29.6 °F 32.0 °F 93% 30.49 in 0.2 mi SE 4.6 mph - N/A Fog Fog
10:54 PM 36.0 °F 32.1 °F 35.1 °F 97% 30.51 in 0.2 mi SSW 4.6 mph - N/A Fog Fog
11:54 PM 39.0 °F 35.7 °F 37.9 °F 96% 30.50 in 0.2 mi SSW 4.6 mph - N/A Fog Fog